AirNav   Air Wisconsin pilot careers
 
 1572 users online  

L00 Rosamond Skypark Airport
Rosamond, California, USA

GOING TO ROSAMOND?


FAA INFORMATION EFFECTIVE 01 FEBRUARY 2018

Location

FAA Identifier: L00
Lat/Long: 34-52-13.8000N / 118-12-19.5000W
34-52.230000N / 118-12.325000W
34.8705000 / -118.2054167
(estimated)
Elevation: 2415 ft. / 736 m (estimated)
Variation: 14E (1985)
From city: 3 miles W of ROSAMOND, CA
Time zone: UTC -8 (UTC -7 during Daylight Saving Time)
Zip code: 93560

Airport Operations

Airport use: Open to the public
Activation date: 03/1953
Control tower: no
ARTCC: LOS ANGELES CENTER
FSS: RIVERSIDE FLIGHT SERVICE STATION
NOTAMs facility: RAL (NOTAM-D service available)
Attendance: UNATNDD
Pattern altitude: 3215 ft. MSL
GLIDER TFC PATTERN ALT 500'.
Wind indicator: lighted
Segmented circle: yes
Lights: ACTVT LIRL RWY 08/26 - CTAF.
Beacon: white-green (lighted land airport)
ROTG BCN OTS INDEFLY. ACTVT ROTG BCN - CTAF.

Airport Communications

CTAF: 122.9
WX ASOS at WJF (8 nm S): PHONE 661-949-2840
WX AWOS-3 at MHV (12 nm N): 132.225 (661-824-5218)
WX ASOS at PMD (16 nm S): PHONE 661-272-3798
WX AWOS-1 at L71 (19 nm NE): 120.875 (760-373-7670)
WX AWOS-3P at TSP (20 nm NW): 120.025 (661-823-0473)

Nearby radio navigation aids

VOR radial/distance  VOR name  Freq  Var
PMDr319/16.0PALMDALE VORTAC114.5015E
LHSr043/21.5LAKE HUGHES VORTAC108.4015E
EDWr239/24.2EDWARDS VORTAC116.4015E
GMNr067/32.5GORMAN VORTAC116.1016E

Airport Services

Fuel available: 100LL
Parking: tiedowns
Bottled oxygen: NONE

Runway Information

Runway 8/26

Dimensions: 3600 x 50 ft. / 1097 x 15 m
Surface: asphalt, in fair condition
Runway edge lights: non-standard
RY 08/26 NSTD LIRL 25 FT FM EDGE OF RY.
RUNWAY 8  RUNWAY 26
Latitude: 34-52.230333N34-52.228167N
Longitude: 118-12.685167W118-11.965000W
Gradient: 0.9%0.9%
Traffic pattern: rightleft
Displaced threshold: 300 ft.200 ft.
Markings: basic, in fair conditionbasic, in fair condition
Runway end identifier lights: nono
Obstructions: none
APCH RATIO 50:1 TO DSPLCD THLD.
40 ft. trees, 625 ft. from runway, 10:1 slope to clear
APCH RATIO 20:1 TO DSPLCD THLD.

Airport Ownership and Management from official FAA records

Ownership: Privately-owned
Owner: ROSAMOND SKYPARK ASSN
4000 KNOX AVENUE
ROSAMOND, CA 93560
Phone 888-397-6290
Manager: FRANCIS ZELLER
ROSAMOND SKYPARK ASSOCIATION, 4000 KNOX AVENUE
ROSAMOND, CA 93560
Phone (661) 609-3668
MGR: PRESIDENT, BOARD OF DIRECTORS DIRECTOR: JOHN WILSON, ROSAMOND SKYPARK ASSN (661) 256-4600 EMAIL: JOHN@SKYPARK.ORG

Airport Operational Statistics

Aircraft based on the field: 71
Single engine airplanes: 63
Multi engine airplanes: 3
Helicopters: 1
Gliders airplanes: 2
Ultralights: 2
    
Aircraft operations: avg 41/day *
67% local general aviation
33% transient general aviation
* for 12-month period ending 24 May 2017

Additional Remarks

MAINTAIN RY HEADING UNTIL REACHING ARPT BOUNDARY.
AVOID OVERFLIGHT OF SCHOOLS 1 MILE E AND 2 MILES W.
GLIDERS; ULTRALIGHTS & HELICOPTERS TFC PAT NORTH OF RY.
NO TOUCH & GO LNDGS BETWEEN 2200 & 0700 LOCAL.
POWERED ACFT ONLY MAY USE SOUTH TFC PAT.
CALM WIND USE RY 26.
TERRAIN APPROX 3,200 FEET MSL 2 MILES NORTH-EAST AND 3 MILES NORTHWEST OF ARPT.
ARPT USE RESTRICTED BY AMGR TO ACFT HAVING A MAXIMUM CERTIFICATED GROSS TKOF WGT OF 12,500 LBS OR LESS; CTC AMGR FOR ADDITIONAL INFO (888) 397-6290.

Instrument Procedures

There are no published instrument procedures at L00.

Some nearby airports with instrument procedures:

KWJF - General Wm J Fox Airfield (8 nm S)
KMHV - Mojave Air and Space Port (12 nm N)
KPMD - Palmdale USAF Plant 42 Airport (16 nm S)
KEDW - Edwards Air Force Base (16 nm E)
L71 - California City Municipal Airport (19 nm NE)
 
Loc | Ops | Rwys | IFR | FBO | Links
Com | Nav | Svcs | Stats | Notes

AirNav Hotels Sweepstakes
 
Area around L00 (Rosamond Skypark Airport)
 
Road maps at: MapQuest Bing Google
 
Aerial photo
WARNING: Photo may not be current or correct
Aerial photo of L00 (Rosamond Skypark Airport)
Photo by Jerry Rootlieb
Photo taken 25-Nov-2017
looking west.

Do you have a better or more recent aerial photo of Rosamond Skypark Airport that you would like to share? If so, please send us your photo.

 
Sectional chart

 
Airport distance calculator
Flying to Rosamond Skypark Airport? Find the distance to fly.

From to L00

Sunrise and sunset
Times for 22-Feb-2018
 Local
(UTC-8)
 Zulu
(UTC)
Morning civil twilight06:0614:06
Sunrise06:3214:32
Sunset17:4101:41
Evening civil twilight18:0702:07

Current date and time
Zulu (UTC)  22-Feb-2018 17:39:00
Local (UTC-8)  22-Feb-2018 09:39:00
 
METAR
KWJF 
9nm S 
221656Z 23016G20KT 10SM CLR 08/M06 A3016 RMK AO2 SLP224 T00781056
KMHV 
12nm N 
221700Z AUTO 27013G22KT 10SM CLR 06/M09 A3013 RMK A01
KPMD 
15nm SE 
221653Z AUTO 22019G22KT 10SM CLR 07/M06 A3016 RMK AO2 SLP215 T00721056
KEDW 
17nm E 
221715Z 23018G22KT 90SM FEW040 08/M08 A3012 RMK AO2A SLP207
K9L2 
18nm NE 
221558Z AUTO 23006KT 10SM CLR 05/M10 A3013 RMK AO2 SLP209 T00461100
KTSP 
20nm NW 
221715Z AUTO 32015G20KT 10SM FEW044 03/M10 A3012 RMK AO2
TAF
KWJF 
9nm S 
221122Z 2212/2312 24012KT P6SM SKC FM221500 24015G25KT P6SM SKC FM221900 25022G32KT 6SM BLDU SKC FM222200 25028G38KT 6SM BLDU SCT120 FM230200 26020G30KT P6SM VCSH SCT080 FM230600 27015G25KT P6SM VCSH SCT080
KPMD 
15nm SE 
221122Z 2212/2312 24012KT P6SM SKC FM221500 24015G25KT P6SM SKC FM221900 25022G32KT 6SM BLDU SKC FM222200 25028G38KT 6SM BLDU SCT120 FM230200 26020G30KT P6SM VCSH SCT080 FM230600 27015G25KT P6SM VCSH SCT080
KEDW 
17nm E 
221002Z 2210/2316 24009KT 9999 FEW080 QNH3009INS BECMG 2215/2216 21012G18KT 9999 SKC 510009 QNH3010INS BECMG 2217/2218 25015G25KT 9999 SKC 520009 QNH3004INS TEMPO 2220/2303 25025G35KT 530009 BECMG 2302/2303 26012G18KT 9999 SKC 510009 QNH3005INS BECMG 2309/2310 27012KT 9999 SKC QNH3008INS TX12/2221Z TNM05/2214Z
NOTAMs
Click for the latest NOTAMs
NOTAMs are issued by the DoD/FAA and will open in a separate window not controlled by AirNav.

 

 
 

FBO, Fuel Providers, and Aircraft Ground Support

  
 Business Name 
 
 Contact 
 
 Services / Description 
 
Fuel Prices
 
Comments
  
Rosamond Skypark 661-256-4500
no information available

If you are affiliated with Rosamond Skypark and would like to show here your services, contact info, web link, logo, and more, click here
100LL
SS $4.83 
 Updated 15-Feb-2018
 
   1 read write
SS=Self service
Update Fuel Prices
 

Where to Eat: Catering, Restaurants, Food shops

  
 Business Name 
 
 Contact 
 
 Services / Description 
 
Distance
 
Comments
  
El Indio 661-256-6737
no information available

If you are affiliated with El Indio and would like to show here your services, contact info, web link, logo, and more, click here
on airport  
   3 read write
 

Would you like to see your business listed on this page?

 If your business provides an interesting product or service to pilots, flight crews, aircraft, or users of the Rosamond Skypark Airport, you should consider listing it here.  To start the listing process, click on the button below
 
Add a business
 

Other Pages about Rosamond Skypark Airport

www.skypark.org
 
Update a link
 
Copyright © AirNav, LLC. All rights reserved. Privacy Policy  Contact